GW6852 Weather Reports


Display with metric or nautical units.
time (UTC)temp
F
wind
direction
speed
MPH
gust
MPH
rain 1hr
in
rain 24hr
in
rain mn
in
humidity
%
barometer
mb
20260506144901 53 98 2.0 3.0 0.00 0.00 0.00 88 1019.7
20260506144357 53 81 2.0 4.0 0.00 0.00 0.00 88 1019.5
20260506143856 53 95 2.0 4.0 0.00 0.00 0.00 87 1019.5
20260506143352 53 44 2.0 3.0 0.00 0.00 0.00 88 1019.5
20260506142851 53 88 2.0 3.0 0.00 0.00 0.00 88 1019.5
20260506142348 53 28 2.0 3.0 0.00 0.00 0.00 88 1019.5
20260506141846 53 61 2.0 6.0 0.00 0.00 0.00 87 1019.5
20260506141344 53 87 2.0 4.0 0.00 0.00 0.00 87 1019.7
20260506140842 53 49 2.0 4.0 0.00 0.00 0.00 88 1019.6
20260506140338 53 66 2.0 4.0 0.00 0.00 0.00 88 1019.5
20260506135835 53 39 3.0 9.0 0.00 0.00 0.00 87 1019.4
20260506135332 53 68 2.0 4.0 0.00 0.00 0.00 88 1019.4
20260506134828 53 58 3.0 5.0 0.00 0.00 0.00 88 1019.3
20260506134325 53 68 2.0 4.0 0.00 0.00 0.00 88 1019.2
20260506133822 53 52 3.0 4.0 0.00 0.00 0.00 87 1019.0
20260506133319 53 98 4.0 4.0 0.00 0.00 0.00 88 1019.1
20260506132816 52 11 2.0 5.0 0.00 0.00 0.00 88 1018.8
20260506132313 52 82 1.0 4.0 0.00 0.00 0.00 88 1019.0
20260506131811 52 83 3.0 3.0 0.00 0.00 0.00 88 1018.9
20260506131306 52 51 2.0 2.0 0.00 0.00 0.00 88 1018.8
20260506130804 52 36 2.0 4.0 0.00 0.00 0.00 88 1019.1
20260506130300 52 75 2.0 6.0 0.00 0.00 0.00 88 1019.2
20260506125759 52 89 2.0 5.0 0.00 0.00 0.00 88 1019.2
20260506125256 52 64 2.0 9.0 0.00 0.00 0.00 88 1019.1
20260506124754 52 83 3.0 4.0 0.00 0.00 0.00 88 1019.2
20260506124251 52 17 2.0 4.0 0.00 0.00 0.00 88 1019.2
20260506123749 52 311 0.0 4.0 0.00 0.00 0.00 88 1019.5
20260506123247 52 293 3.0 4.0 0.00 0.00 0.00 88 1019.4
20260506122744 52 97 3.0 9.0 0.00 0.00 0.00 88 1019.3
20260506122241 52 49 4.0 8.0 0.00 0.00 0.00 88 1019.1
20260506121739 52 131 1.0 4.0 0.00 0.00 0.00 88 1019.2
20260506121235 52 146 2.0 7.0 0.00 0.00 0.00 88 1019.0
20260506120733 52 67 1.0 5.0 0.00 0.00 0.00 88 1018.7
20260506120231 52 46 2.0 3.0 0.00 0.00 0.00 88 1018.8
20260506115728 52 102 4.0 13.0 0.00 0.00 0.00 87 1018.6
20260506115226 53 72 3.0 6.0 0.00 0.00 0.00 87 1018.5
20260506114724 53 66 3.0 6.0 0.00 0.00 0.00 87 1018.7
20260506114221 53 40 3.0 5.0 0.00 0.00 0.00 87 1018.6
20260506113720 53 93 2.0 6.0 0.00 0.00 0.00 87 1018.6
20260506113217 53 87 4.0 5.0 0.00 0.00 0.00 87 1018.5
20260506112713 53 340 3.0 4.0 0.00 0.00 0.00 87 1018.6
20260506112211 53 28 2.0 6.0 0.00 0.00 0.00 87 1018.6
20260506111708 53 340 1.0 9.0 0.00 0.00 0.00 87 1018.6
20260506111206 53 70 3.0 10.0 0.00 0.00 0.00 88 1018.6
20260506110703 53 102 2.0 9.0 0.00 0.00 0.00 88 1018.6
20260506110200 53 259 4.0 5.0 0.00 0.00 0.00 87 1018.3
20260506105657 53 262 1.0 5.0 0.00 0.00 0.00 88 1018.3
20260506105153 53 83 4.0 7.0 0.00 0.00 0.00 88 1018.2
20260506104652 53 66 3.0 5.0 0.00 0.00 0.00 89 1018.2
20260506104149 53 28 0.0 4.0 0.00 0.00 0.00 88 1018.0
20260506103646 53 56 4.0 4.0 0.00 0.00 0.00 89 1017.7
20260506103143 53 85 4.0 6.0 0.00 0.00 0.00 89 1018.0
20260506102641 52 338 4.0 4.0 0.00 0.00 0.00 90 1017.7
20260506102138 52 85 3.0 4.0 0.00 0.00 0.00 90 1017.6
20260506101635 52 113 2.0 8.0 0.00 0.00 0.00 91 1017.6
20260506101132 52 85 2.0 4.0 0.00 0.00 0.00 91 1017.4
20260506100630 52 16 2.0 4.0 0.00 0.00 0.00 90 1017.5
20260506100128 52 110 1.0 4.0 0.00 0.00 0.00 90 1017.5
20260506095626 52 88 2.0 2.0 0.00 0.00 0.00 89 1017.5
20260506095122 53 16 2.0 3.0 0.00 0.00 0.00 89 1017.4
20260506094620 53 101 2.0 13.0 0.00 0.00 0.00 89 1017.5
20260506094118 53 80 2.0 4.0 0.00 0.00 0.00 89 1017.5
20260506093616 53 131 2.0 6.0 0.00 0.00 0.00 89 1017.6
20260506093113 52 153 4.0 4.0 0.00 0.00 0.00 89 1017.5
20260506092611 52 190 2.0 6.0 0.00 0.00 0.00 89 1017.5
20260506092107 53 69 3.0 3.0 0.00 0.00 0.00 89 1017.3
20260506091606 53 99 6.0 6.0 0.00 0.00 0.00 89 1017.6
20260506091103 52 87 2.0 4.0 0.00 0.00 0.00 91 1017.5
20260506090600 52 96 3.0 3.0 0.00 0.00 0.00 90 1017.4
20260506090056 52 103 4.0 4.0 0.00 0.00 0.00 91 1017.3
20260506085554 52 77 2.0 3.0 0.00 0.00 0.00 91 1017.5
20260506085050 52 88 2.0 2.0 0.00 0.00 0.00 90 1017.3
20260506084547 52 123 1.0 4.0 0.00 0.00 0.00 90 1017.5
20260506084043 52 71 1.0 6.0 0.00 0.00 0.00 91 1017.4
20260506083540 52 72 3.0 3.0 0.00 0.00 0.00 90 1017.2
20260506083038 52 100 2.0 3.0 0.00 0.00 0.00 90 1017.3
20260506082534 53 92 0.0 2.0 0.00 0.00 0.00 89 1017.5
20260506082030 53 127 6.0 6.0 0.00 0.00 0.00 89 1017.5
20260506081528 53 84 4.0 4.0 0.00 0.00 0.00 88 1017.3
20260506081026 53 33 2.0 4.0 0.00 0.00 0.00 89 1017.3
20260506080523 53 195 1.0 10.0 0.00 0.00 0.00 90 1017.2
20260506073507 53 132 2.0 4.0 0.00 0.00 0.00 89 1016.9
20260506073004 53 76 1.0 4.0 0.00 0.00 0.00 89 1016.8
20260506072501 53 27 2.0 3.0 0.00 0.00 0.00 89 1016.6
20260506071958 53 244 3.0 3.0 0.00 0.00 0.00 90 1016.8
20260506071456 53 232 3.0 4.0 0.00 0.00 0.00 90 1016.7
20260506070953 53 45 0.0 4.0 0.00 0.00 0.00 92 1016.7
20260506070450 52 98 1.0 3.0 0.00 0.00 0.00 92 1016.8
20260506062428 52 64 0.0 2.0 0.00 0.00 0.00 92 1016.7
20260506061923 52 87 1.0 2.0 0.00 0.00 0.00 92 1016.8
20260506061420 52 81 1.0 2.0 0.00 0.00 0.00 92 1016.7
20260506060918 52 66 2.0 2.0 0.00 0.00 0.00 92 1016.7
20260506060416 52 81 1.0 3.0 0.00 0.00 0.00 91 1016.7
20260506051348 54 122 0.0 2.0 0.00 0.00 0.00 88 1016.4
20260506050845 55 54 2.0 3.0 0.00 0.00 0.00 87 1016.5
20260506050343 55 49 0.0 2.0 0.00 0.00 0.00 86 1016.4
20260506044833 55 32 2.0 2.0 0.00 0.00 0.00 87 1016.3
20260506044331 54 39 1.0 6.0 0.00 0.00 0.00 88 1016.0
20260506043828 55 75 1.0 2.0 0.00 0.00 0.00 88 1015.9
20260506043325 55 47 2.0 4.0 0.00 0.00 0.00 88 1015.9
20260506042823 55 77 1.0 2.0 0.00 0.00 0.00 87 1016.0
20260506042322 55 69 0.0 2.0 0.00 0.00 0.00 87 1015.8
20260506041821 55 84 2.0 2.0 0.00 0.00 0.00 86 1016.0
20260506041317 56 34 1.0 2.0 0.00 0.00 0.00 85 1016.0
20260506040814 56 83 0.0 2.0 0.00 0.00 0.00 84 1015.9
20260506040311 56 72 0.0 2.0 0.00 0.00 0.00 83 1015.7
20260506035808 57 66 0.0 2.0 0.00 0.00 0.00 82 1015.6
20260506035306 57 37 2.0 2.0 0.00 0.00 0.00 80 1015.6
20260506034802 58 94 2.0 3.0 0.00 0.00 0.00 79 1015.7
20260506034259 58 86 2.0 4.0 0.00 0.00 0.00 79 1015.6
20260506033756 58 108 4.0 4.0 0.00 0.00 0.00 79 1015.6
20260506033253 58 40 4.0 5.0 0.00 0.00 0.00 78 1015.8
20260506032750 58 93 4.0 8.0 0.00 0.00 0.00 79 1015.5
20260506032247 58 75 0.0 4.0 0.00 0.00 0.00 78 1015.6
20260506031743 58 54 4.0 6.0 0.00 0.00 0.00 78 1015.4
20260506031241 58 110 4.0 4.0 0.00 0.00 0.00 78 1015.4
20260506030739 58 30 6.0 7.0 0.00 0.00 0.00 78 1015.3
20260506030236 59 63 0.0 2.0 0.00 0.00 0.00 78 1015.3
20260506025733 59 224 2.0 3.0 0.00 0.00 0.00 78 1015.3
20260506025230 59 83 2.0 4.0 0.00 0.00 0.00 77 1015.4
20260506024726 59 189 1.0 4.0 0.00 0.00 0.00 77 1015.4
20260506024223 59 59 2.0 2.0 0.00 0.00 0.00 77 1015.3
20260506023719 59 33 9.0 9.0 0.00 0.00 0.00 76 1015.4
20260506023217 59 74 1.0 4.0 0.00 0.00 0.00 76 1015.5
20260506022713 60 4 1.0 4.0 0.00 0.00 0.00 76 1015.7
20260506022211 60 84 0.0 6.0 0.00 0.00 0.00 76 1015.6
20260506021709 60 15 3.0 10.0 0.00 0.00 0.00 75 1015.5
20260506021206 60 21 2.0 2.0 0.00 0.00 0.00 76 1015.5
20260506020702 60 63 2.0 5.0 0.00 0.00 0.00 76 1015.6
20260506020200 60 107 3.0 9.0 0.00 0.00 0.00 75 1015.4
20260506015657 60 114 2.0 4.0 0.00 0.00 0.00 75 1015.6
20260506015155 60 202 2.0 8.0 0.00 0.00 0.00 75 1015.4
20260506014652 60 256 2.0 3.0 0.00 0.00 0.00 75 1015.4
20260506014148 60 218 4.0 4.0 0.00 0.00 0.00 74 1015.4
20260506013646 61 231 4.0 5.0 0.00 0.00 0.00 74 1015.6
20260506013143 61 160 2.0 5.0 0.00 0.00 0.00 73 1015.5
20260506012639 61 66 0.0 3.0 0.00 0.00 0.00 73 1015.3
20260506012136 62 78 2.0 6.0 0.00 0.00 0.00 70 1015.3
20260506011633 63 307 0.0 3.0 0.00 0.00 0.00 70 1015.4
20260506011129 63 41 3.0 4.0 0.00 0.00 0.00 71 1015.3
20260506010628 62 22 6.0 6.0 0.00 0.00 0.00 71 1015.3
20260506010125 63 237 3.0 4.0 0.00 0.00 0.00 70 1015.4
20260506005622 64 46 0.0 6.0 0.00 0.00 0.00 67 1015.4
20260506005118 65 137 1.0 3.0 0.00 0.00 0.00 67 1015.3
20260506004615 66 40 2.0 3.0 0.00 0.00 0.00 67 1015.2
20260506004112 65 49 3.0 6.0 0.00 0.00 0.00 67 1015.4
20260506003608 66 58 2.0 10.0 0.00 0.00 0.00 67 1015.3
20260506003104 65 312 2.0 5.0 0.00 0.00 0.00 68 1015.4
20260506002600 65 111 2.0 6.0 0.00 0.00 0.00 67 1015.5
20260506002056 68 104 3.0 4.0 0.00 0.00 0.00 64 1015.5
20260506001553 68 61 2.0 2.0 0.00 0.00 0.00 62 1015.6
20260506001050 68 93 4.0 4.0 0.00 0.00 0.00 63 1015.6
20260506000547 69 77 2.0 3.0 0.00 0.00 0.00 62 1015.7
20260506000045 67 74 2.0 4.0 0.00 0.00 0.00 65 1015.8
20260505235543 66 44 3.0 4.0 0.00 0.00 0.00 67 1015.7
20260505235039 66 113 4.0 6.0 0.00 0.00 0.00 67 1015.8
20260505234536 66 47 2.0 4.0 0.00 0.00 0.00 68 1015.8
20260505234033 66 64 3.0 3.0 0.00 0.00 0.00 66 1015.9
20260505233531 66 41 3.0 8.0 0.00 0.00 0.00 66 1016.2
20260505233028 64 111 2.0 7.0 0.00 0.00 0.00 68 1016.0
20260505232526 65 11 10.0 11.0 0.00 0.00 0.00 67 1016.1
20260505232023 65 109 2.0 11.0 0.00 0.00 0.00 67 1016.2
20260505231520 67 103 3.0 5.0 0.00 0.00 0.00 65 1016.2
20260505231019 66 51 4.0 4.0 0.00 0.00 0.00 66 1016.3
20260505230515 66 273 5.0 6.0 0.00 0.00 0.00 67 1016.2
20260505230012 65 57 4.0 4.0 0.00 0.00 0.00 69 1016.2
20260505225509 65 22 2.0 5.0 0.00 0.00 0.00 69 1016.3
20260505225005 63 351 2.0 8.0 0.00 0.00 0.00 71 1016.4
20260505224502 64 36 1.0 4.0 0.00 0.00 0.00 69 1016.3
20260505223959 64 13 1.0 8.0 0.00 0.00 0.00 68 1016.5
20260505223456 64 30 2.0 6.0 0.00 0.00 0.00 69 1016.4
20260505222952 63 142 0.0 4.0 0.00 0.00 0.00 71 1016.4
20260505222448 63 23 2.0 6.0 0.00 0.00 0.00 71 1016.4
20260505221944 62 63 3.0 6.0 0.00 0.00 0.00 71 1016.8
20260505221442 64 20 0.0 13.0 0.00 0.00 0.00 69 1016.7
20260505220939 64 352 2.0 5.0 0.00 0.00 0.00 69 1016.7
20260505220436 65 84 2.0 4.0 0.00 0.00 0.00 68 1016.5
20260505215933 64 39 3.0 6.0 0.00 0.00 0.00 69 1016.8
20260505215431 63 78 3.0 4.0 0.00 0.00 0.00 72 1016.7
20260505214929 63 70 2.0 3.0 0.00 0.00 0.00 71 1016.7
20260505214427 62 11 3.0 4.0 0.00 0.00 0.00 72 1016.8
20260505213924 62 40 3.0 6.0 0.00 0.00 0.00 72 1017.0
20260505213421 62 127 11.0 11.0 0.00 0.00 0.00 73 1016.7
20260505212917 61 357 1.0 4.0 0.00 0.00 0.00 75 1016.9
20260505212414 60 214 2.0 10.0 0.00 0.00 0.00 75 1017.0
20260505211910 60 19 1.0 6.0 0.00 0.00 0.00 76 1017.0
20260505211408 60 6 2.0 9.0 0.00 0.00 0.00 76 1016.9
20260505210904 61 340 1.0 4.0 0.00 0.00 0.00 75 1016.9
20260505210402 61 6 2.0 8.0 0.00 0.00 0.00 75 1017.0
20260505205858 61 24 2.0 4.0 0.00 0.00 0.00 75 1017.0
20260505205357 60 96 2.0 3.0 0.00 0.00 0.00 76 1017.0
20260505204853 60 27 1.0 10.0 0.00 0.00 0.00 76 1017.3
20260505204351 61 81 2.0 5.0 0.00 0.00 0.00 75 1017.0
20260505203848 61 345 0.0 5.0 0.00 0.00 0.00 75 1016.9
20260505203344 60 42 9.0 10.0 0.00 0.00 0.00 75 1017.0
20260505202841 60 31 2.0 4.0 0.00 0.00 0.00 78 1016.9
20260505202337 60 263 2.0 5.0 0.00 0.00 0.00 76 1016.9
20260505201834 60 341 3.0 4.0 0.00 0.00 0.00 77 1016.9
20260505201331 60 64 4.0 8.0 0.00 0.00 0.00 76 1016.9
20260505200830 60 29 2.0 5.0 0.00 0.00 0.00 76 1016.8
20260505200326 59 261 2.0 7.0 0.00 0.00 0.00 78 1016.7
20260505195821 59 76 2.0 11.0 0.00 0.00 0.00 78 1017.0
20260505195319 60 333 3.0 4.0 0.00 0.00 0.00 77 1017.0
20260505194816 59 9 4.0 5.0 0.00 0.00 0.00 79 1017.0
20260505194313 59 31 2.0 6.0 0.00 0.00 0.00 79 1017.0
20260505193808 59 278 1.0 7.0 0.00 0.00 0.00 77 1017.1
20260505193307 59 284 1.0 4.0 0.00 0.00 0.00 77 1016.9
20260505192804 59 31 4.0 4.0 0.00 0.00 0.00 77 1017.0
20260505192305 60 107 2.0 4.0 0.00 0.00 0.00 78 1017.0
20260505191800 60 45 3.0 10.0 0.00 0.00 0.00 77 1016.9
20260505191258 60 16 4.0 7.0 0.00 0.00 0.00 77 1016.8
20260505190754 59 87 2.0 5.0 0.00 0.00 0.00 77 1016.9
20260505190249 59 52 2.0 4.0 0.00 0.00 0.00 78 1016.8
20260505185746 59 115 2.0 5.0 0.00 0.00 0.00 79 1016.9
20260505185242 59 22 2.0 3.0 0.00 0.00 0.00 79 1016.9
20260505184738 59 359 1.0 9.0 0.00 0.00 0.00 79 1017.0
20260505184236 59 69 0.0 6.0 0.00 0.00 0.00 80 1017.0
20260505183732 59 83 2.0 4.0 0.00 0.00 0.00 80 1016.8
20260505183230 59 302 0.0 2.0 0.00 0.00 0.00 81 1017.0
20260505182726 59 32 0.0 3.0 0.00 0.00 0.00 81 1016.9
20260505182223 59 74 4.0 8.0 0.00 0.00 0.00 80 1016.8
20260505181719 58 107 1.0 2.0 0.00 0.00 0.00 81 1016.8
20260505181217 58 89 2.0 5.0 0.00 0.00 0.00 82 1016.8
20260505180714 58 1 0.0 2.0 0.00 0.00 0.00 82 1016.7
20260505180210 58 32 4.0 9.0 0.00 0.00 0.00 82 1016.7
20260505175706 58 344 0.0 10.0 0.00 0.00 0.00 83 1016.7
20260505175203 58 48 4.0 4.0 0.00 0.00 0.00 82 1016.9
20260505174659 58 21 3.0 3.0 0.00 0.00 0.00 81 1016.7
20260505174155 58 285 1.0 2.0 0.00 0.00 0.00 82 1016.9
20260505173652 58 119 2.0 9.0 0.00 0.00 0.00 81 1016.7
20260505173149 58 113 0.0 2.0 0.00 0.00 0.00 82 1016.7
20260505172647 57 345 2.0 4.0 0.00 0.00 0.00 83 1016.6
20260505172144 57 13 1.0 3.0 0.00 0.00 0.00 83 1016.6
20260505171643 57 42 5.0 6.0 0.00 0.00 0.00 83 1016.7
20260505171141 57 129 6.0 6.0 0.00 0.00 0.00 82 1016.6
20260505170638 58 104 4.0 4.0 0.00 0.00 0.00 82 1016.6
20260505170135 58 221 2.0 9.0 0.00 0.00 0.00 80 1016.6
20260505165634 58 116 0.0 3.0 0.00 0.00 0.00 81 1016.7
20260505165131 58 66 3.0 3.0 0.00 0.00 0.00 81 1016.8
20260505164626 57 83 1.0 3.0 0.00 0.00 0.00 82 1016.5
20260505164124 57 26 3.0 4.0 0.00 0.00 0.00 82 1016.5
20260505163622 57 76 2.0 3.0 0.00 0.00 0.00 82 1016.5
20260505163119 57 146 2.0 4.0 0.00 0.00 0.00 82 1016.5
20260505162617 57 84 2.0 6.0 0.00 0.00 0.00 82 1016.5
20260505162115 57 115 3.0 4.0 0.00 0.00 0.00 83 1016.4
20260505161612 57 99 4.0 4.0 0.00 0.00 0.00 83 1016.5
20260505161109 57 57 0.0 4.0 0.00 0.00 0.00 83 1016.4
20260505160606 57 65 2.0 2.0 0.00 0.00 0.00 84 1016.5
20260505160104 57 21 1.0 5.0 0.00 0.00 0.00 84 1016.6
20260505153043 56 116 3.0 3.0 0.00 0.00 0.00 84 1016.1
20260505152540 56 66 2.0 7.0 0.00 0.00 0.00 84 1016.3
20260505152036 56 32 3.0 5.0 0.00 0.00 0.00 84 1016.2
20260505151531 56 330 0.0 4.0 0.00 0.00 0.00 84 1016.0
20260505151029 56 131 2.0 3.0 0.00 0.00 0.00 85 1016.2
20260505150525 56 71 4.0 4.0 0.00 0.00 0.00 85 1016.0